SCP
0 0 0 0 0 0 0 0 0 0 0 0 0 0 0 -0 0 -0 -0 0 0 0 0 -0 -0 -0 0 0 0 0 0 0 0 0 0 0 0 0
0 0 0 0 0 0 0 0 0 0 0 0 0 0 0 0 -0 -0 -0 -0 -0 0 -0 -0 -0 0 0 0 0 0 0 0 0 0 0 0 0 0
0 0 0 0 0 0 0 0 0 0 0 0 0 -0 -0 0 0 -0 -0 0 -0 -0 -0 -0 0 0 0 0 0 0 0 0 0 0 0 0 0 0
0 0 0 0 0 0 0 0 0 0 -0 0 0 0 0 0 -0 -0 0 -0 -0 -0 -0 0 0 0 0 0 0 0 0 0 0 0 0 0 0 0
0 0 0 0 0 0 0 -0 0 0 -0 0 0 0 0 0 0 -0 -0 0 0 -0 -0 0 0 0 0 0 0 0 0 0 0 0 0 0 0 0
0 0 0 0 -0 -0 0 0 0 0 0 0 0 -0 0 0 -0 0 0 0 0 0 0 0 0 0 0 0 0 0 0 0 0 0 0 0 0 0
0 0 0 -0 -0 -0 0 0 -0 0 0 -0 -0 0 0 0 0 0 0 0 0 0 0 0 0 0 0 0 0 0 0 0 0 0 0 0 0 0
-0 0 -0 -0 -0 0 0 0 0 0 -0 -0 0 -0 -0 0 0 0 0 0 0 0 0 0 0 0 0 0 0 0 0 0 0 0 0 0 0 0
0 -0 0 0 0 0 0 0 0 -0 0 -0 0 0 0 0 0 0 0 0 0 0 0 0 0 0 0 0 0 0 0 0 0 0 0 0 0 0
0 0 0 0 0 0 0 0 0 -0 -0 -0 0 0 0 0 0 0 0 0 0 0 0 0 0 0 0 0 0 0 0 0 0 0 0 0 0 0
0 0 0 -0 -0 -0 -0 -0 -0 -0 -0 -0 -0 0 0 0 0 0 0 0 0 0 0 0 0 0 0 0 0 0 0 0 0 0 0 0 0 0
0 0 0 -0 -0 0 -0 -0 -0 -0 -0 0 0 0 0 0 0 0 0 0 0 0 0 0 0 0 0 0 0 0 0 0 0 0 0 0 0 0
0 0 0 0 0 -0 0 0 0 0 0 0 0 0 0 0 0 0 0 0 0 0 0 0 0 0 0 0 0 0 0 0 0 0 0 0 0 0
-0 -0 -0 -0 -0 0 0 0 0 0 0 0 0 0 0 0 0 0 0 0 0 0 0 0 0 0 0 0 0 0 0 0 0 0 0 0 0 0
-0 -0 -0 0 0 0 0 0 0 0 0 0 0 0 0 0 0 0 0 0 0 0 0 0 0 0 0 0 0 0 0 0 0 0 0 0 0 0
-0 -0 0 0 0 0 0 0 0 0 0 0 0 0 0 0 0 0 0 0 0 0 0 0 0 0 0 0 0 0 0 0 0 0 0 0 0 0
0 0 0 0 0 0 0 0 0 0 0 0 0 0 0 0 0 0 0 0 0 0 0 0 0 0 0 0 0 0 0 0 0 0 0 0 0 0
0 0 0 0 0 0 0 0 0 0 0 0 0 0 0 0 0 0 0 0 0 0 0 0 0 0 0 0 0 0 0 0 0 0 0 0 0 0
0 0 0 0 0 0 0 0 0 0 0 0 0 0 0 0 0 0 0 0 0 0 0 0 0 0 0 0 0 0 0 0 0 0 0 0 0 0
0 0 0 0 0 0 0 0 0 0 0 0 0 0 0 0 0 0 0 0 0 0 0 0 0 0 0 0 0 0 0 0 0 0 0 0 0 0
0 0 0 0 0 0 0 0 0 0 0 0 0 0 0 0 0 0 0 0 0 0 0 0 0 0 0 0 0 0 0 0 0 0 0 0 0 0
0 0 0 0 0 0 0 0 0 0 0 0 0 0 0 0 0 0 -0 0 0 0 0 0 0 0 0 0 0 0 0 0 0 0 0 0 0 0
0 0 0 0 0 0 0 0 0 0 0 0 0 0 0 0 -0 -0 0 0 0 0 0 0 0 0 0 0 0 0 0 0 0 0 0 0 0 0
Wind_Speed_500mb
40 41 41 47 47 63 68 61 62 47 48 50 51 49 45 55 46 34 28 26 23 21 23 24 21 24 24 23 22 20 25 29 29 28 30 31 32 31
42 38 38 43 43 54 49 60 55 53 40 47 46 41 40 44 36 30 29 27 27 28 27 25 25 25 27 25 26 28 33 32 34 36 36 36 37 38
33 31 29 39 39 53 66 58 44 53 42 38 32 32 28 26 27 35 27 27 27 30 30 28 28 27 28 31 32 35 36 38 39 39 41 42 43 44
33 21 40 43 52 52 50 41 53 31 27 39 29 40 35 30 32 33 25 26 27 30 28 29 30 34 36 37 38 39 42 43 45 45 47 48 48 50
29 28 27 37 40 52 52 42 30 24 41 38 35 41 40 33 32 30 24 18 20 25 29 36 37 42 44 44 45 47 48 50 53 53 55 54 54 56
28 32 39 44 63 62 43 34 27 33 41 24 27 38 34 28 24 36 34 31 40 41 47 49 46 45 46 46 51 55 57 59 61 62 62 60 60 63
39 36 42 50 58 50 31 31 29 30 31 25 30 33 30 36 35 27 27 23 26 34 41 43 39 42 44 46 51 54 57 58 58 60 64 67 69 69
41 48 53 43 44 36 30 27 36 32 36 31 34 26 19 17 17 26 28 29 40 36 45 51 50 62 61 65 64 63 64 65 66 62 59 63 66 69
34 38 37 34 35 35 32 36 34 35 29 31 28 19 24 21 22 24 25 36 40 39 42 47 47 62 65 67 71 71 73 74 74 75 72 63 63 69
40 32 40 42 39 34 33 43 36 38 36 33 31 31 27 24 27 28 33 38 42 41 35 45 45 59 63 65 64 65 67 66 63 70 73 78 85 77
28 29 33 33 33 31 27 25 27 24 22 22 20 18 20 25 25 29 33 32 36 35 25 35 37 41 40 38 38 55 56 64 65 65 67 77 79 81
29 26 27 28 29 30 29 25 21 15 14 12 10 15 18 23 25 30 32 35 38 46 43 40 55 62 75 69 55 55 68 77 81 83 75 72 69 77
26 28 28 31 33 32 29 28 22 15 9 6 9 16 26 33 31 26 26 32 29 37 45 48 51 44 47 63 66 62 55 58 58 63 65 66 67 60
19 28 31 31 29 26 18 13 10 12 13 13 11 7 9 15 19 17 23 29 39 38 38 39 46 47 49 59 65 65 64 63 66 61 56 56 61 64
25 32 32 29 24 16 11 12 16 17 17 10 2 3 12 19 24 28 28 26 31 30 28 43 40 44 43 50 63 66 64 59 44 58 64 72 63 64
36 27 24 21 19 19 19 20 19 16 13 14 12 17 20 25 25 23 23 21 22 24 17 20 27 34 39 39 45 47 52 64 70 63 61 62 66 63
32 27 25 22 22 22 21 16 10 8 7 9 12 15 14 17 11 15 19 19 27 29 28 38 39 38 40 48 54 60 63 59 56 59 64 70 69 63
33 28 24 21 15 6 6 16 27 29 20 14 17 10 6 9 17 22 19 22 20 25 34 33 42 54 56 54 50 57 63 66 69 70 70 64 70 70
38 30 26 23 18 22 28 32 41 35 27 18 9 4 14 16 10 18 13 14 20 27 25 36 39 49 62 63 65 55 57 61 67 71 69 64 65 61
38 33 26 33 31 35 37 40 29 22 18 16 6 7 13 17 14 12 14 21 27 27 29 33 40 50 55 60 65 64 49 53 61 68 71 61 46 44
40 39 28 43 47 50 51 44 32 22 19 8 21 20 15 7 10 10 11 18 23 29 38 41 45 42 50 58 64 67 63 60 56 52 56 55 57 65
28 37 51 51 55 53 46 31 29 17 27 26 18 13 17 10 8 11 16 26 30 31 40 46 54 56 59 59 60 66 73 68 58 48 48 46 54 56
45 64 58 51 47 42 39 32 33 35 29 22 19 16 10 11 13 16 16 14 25 33 42 50 66 66 62 54 56 63 68 67 69 68 61 57 54 62
Wind_Direction_500mb
149 156 152 155 171 172 165 163 149 135 131 126 150 161 170 187 200 212 225 230 233 225 218 215 228 245 253 258 259 268 275 277 284 285 284 285 285 282
120 133 154 158 164 172 177 170 161 152 151 165 167 164 177 195 208 221 225 226 224 215 212 224 238 249 261 267 270 271 272 278 284 288 288 287 285 283
128 112 124 159 162 175 173 160 152 165 156 158 172 175 178 199 205 199 205 207 210 218 226 236 246 261 272 273 273 273 276 281 287 291 291 288 287 283
166 145 127 141 150 159 161 152 153 150 161 168 170 178 182 201 194 198 200 213 229 243 247 258 266 269 271 274 276 279 284 286 288 291 291 288 287 282
155 151 149 154 163 165 149 142 149 147 165 173 172 181 185 185 188 205 205 221 267 272 260 264 267 269 273 278 280 282 283 285 288 291 288 289 288 285
163 175 161 155 159 154 144 135 145 165 170 170 167 166 180 188 202 204 211 222 222 240 252 266 272 276 276 283 283 286 289 290 290 289 288 288 288 285
113 141 148 149 158 155 142 143 160 163 166 159 158 170 186 197 208 221 239 253 246 261 278 282 292 294 299 300 303 304 302 301 299 296 292 289 285 284
131 130 143 148 155 160 157 163 164 175 168 164 178 196 209 224 225 235 234 247 260 277 274 284 300 306 307 310 313 314 312 309 307 305 305 303 297 288
130 135 143 145 152 159 170 164 168 171 175 182 192 199 220 241 253 258 261 247 256 270 281 290 291 295 306 308 308 308 309 308 307 306 301 302 302 298
128 140 150 154 163 163 157 170 172 172 183 190 186 199 208 216 237 247 259 265 271 284 293 288 305 295 302 298 291 286 295 297 297 296 293 298 304 297
149 158 160 160 158 160 164 174 180 186 193 202 217 231 245 253 259 258 265 283 291 294 299 297 307 294 294 308 312 293 290 291 299 289 288 296 300 292
172 162 171 167 165 163 158 166 161 160 177 196 244 269 284 291 297 301 302 295 299 303 300 297 299 308 314 307 303 292 295 293 291 299 304 298 297 285
175 170 162 159 157 152 162 162 167 178 202 257 297 340 353 351 340 327 315 314 320 320 318 314 314 320 323 327 329 331 330 329 323 318 311 312 312 297
163 163 160 157 158 167 166 170 188 223 255 284 302 347 345 284 287 306 316 317 316 320 323 344 336 339 331 328 330 333 331 329 325 326 324 325 320 309
177 170 172 174 175 179 193 228 248 260 268 279 6 210 257 267 279 287 289 301 318 336 346 350 342 339 334 326 328 327 324 324 323 320 313 310 317 311
179 184 180 189 200 214 234 245 259 261 269 284 258 249 266 277 284 286 297 307 321 322 350 331 336 337 337 333 330 321 319 325 324 324 322 320 319 322
187 189 200 216 233 239 251 262 237 250 213 218 235 259 268 278 321 320 317 321 340 359 344 322 314 310 309 311 317 319 325 330 324 318 316 315 315 316
203 209 217 229 242 253 225 185 191 194 194 236 294 279 320 330 324 337 4 16 1 333 333 348 327 326 328 330 335 326 328 324 319 318 320 321 311 312
208 213 220 229 221 206 191 199 203 205 233 258 227 159 318 321 50 45 9 333 342 345 349 335 339 333 333 334 329 329 321 320 320 326 326 323 321 328
213 222 218 217 190 196 206 215 212 224 212 190 235 351 64 53 51 20 15 350 351 351 340 336 337 333 331 325 320 328 335 321 330 328 329 329 334 336
233 229 224 206 206 206 209 209 220 195 186 210 142 123 114 110 63 27 16 355 353 346 347 348 342 330 321 322 327 330 330 337 342 329 326 330 335 335
244 211 204 204 207 211 213 211 176 183 155 132 129 138 122 105 69 41 19 16 5 337 330 328 335 337 341 335 331 331 337 344 347 349 339 331 333 324
220 201 204 207 210 211 180 174 164 150 149 155 161 135 117 84 67 32 22 350 336 327 319 323 337 342 343 344 341 339 333 335 337 334 328 332 328 326
Wind_Speed_850mb
40 41 41 47 47 63 68 61 62 47 48 50 51 49 45 55 46 34 28 26 23 21 23 24 21 24 24 23 22 20 25 29 29 28 30 31 32 31
42 38 38 43 43 54 49 60 55 53 40 47 46 41 40 44 36 30 29 27 27 28 27 25 25 25 27 25 26 28 33 32 34 36 36 36 37 38
33 31 29 39 39 53 66 58 44 53 42 38 32 32 28 26 27 35 27 27 27 30 30 28 28 27 28 31 32 35 36 38 39 39 41 42 43 44
33 21 40 43 52 52 50 41 53 31 27 39 29 40 35 30 32 33 25 26 27 30 28 29 30 34 36 37 38 39 42 43 45 45 47 48 48 50
29 28 27 37 40 52 52 42 30 24 41 38 35 41 40 33 32 30 24 18 20 25 29 36 37 42 44 44 45 47 48 50 53 53 55 54 54 56
28 32 39 44 63 62 43 34 27 33 41 24 27 38 34 28 24 36 34 31 40 41 47 49 46 45 46 46 51 55 57 59 61 62 62 60 60 63
39 36 42 50 58 50 31 31 29 30 31 25 30 33 30 36 35 27 27 23 26 34 41 43 39 42 44 46 51 54 57 58 58 60 64 67 69 69
41 48 53 43 44 36 30 27 36 32 36 31 34 26 19 17 17 26 28 29 40 36 45 51 50 62 61 65 64 63 64 65 66 62 59 63 66 69
34 38 37 34 35 35 32 36 34 35 29 31 28 19 24 21 22 24 25 36 40 39 42 47 47 62 65 67 71 71 73 74 74 75 72 63 63 69
40 32 40 42 39 34 33 43 36 38 36 33 31 31 27 24 27 28 33 38 42 41 35 45 45 59 63 65 64 65 67 66 63 70 73 78 85 77
28 29 33 33 33 31 27 25 27 24 22 22 20 18 20 25 25 29 33 32 36 35 25 35 37 41 40 38 38 55 56 64 65 65 67 77 79 81
29 26 27 28 29 30 29 25 21 15 14 12 10 15 18 23 25 30 32 35 38 46 43 40 55 62 75 69 55 55 68 77 81 83 75 72 69 77
26 28 28 31 33 32 29 28 22 15 9 6 9 16 26 33 31 26 26 32 29 37 45 48 51 44 47 63 66 62 55 58 58 63 65 66 67 60
19 28 31 31 29 26 18 13 10 12 13 13 11 7 9 15 19 17 23 29 39 38 38 39 46 47 49 59 65 65 64 63 66 61 56 56 61 64
25 32 32 29 24 16 11 12 16 17 17 10 2 3 12 19 24 28 28 26 31 30 28 43 40 44 43 50 63 66 64 59 44 58 64 72 63 64
36 27 24 21 19 19 19 20 19 16 13 14 12 17 20 25 25 23 23 21 22 24 17 20 27 34 39 39 45 47 52 64 70 63 61 62 66 63
32 27 25 22 22 22 21 16 10 8 7 9 12 15 14 17 11 15 19 19 27 29 28 38 39 38 40 48 54 60 63 59 56 59 64 70 69 63
33 28 24 21 15 6 6 16 27 29 20 14 17 10 6 9 17 22 19 22 20 25 34 33 42 54 56 54 50 57 63 66 69 70 70 64 70 70
38 30 26 23 18 22 28 32 41 35 27 18 9 4 14 16 10 18 13 14 20 27 25 36 39 49 62 63 65 55 57 61 67 71 69 64 65 61
38 33 26 33 31 35 37 40 29 22 18 16 6 7 13 17 14 12 14 21 27 27 29 33 40 50 55 60 65 64 49 53 61 68 71 61 46 44
40 39 28 43 47 50 51 44 32 22 19 8 21 20 15 7 10 10 11 18 23 29 38 41 45 42 50 58 64 67 63 60 56 52 56 55 57 65
28 37 51 51 55 53 46 31 29 17 27 26 18 13 17 10 8 11 16 26 30 31 40 46 54 56 59 59 60 66 73 68 58 48 48 46 54 56
45 64 58 51 47 42 39 32 33 35 29 22 19 16 10 11 13 16 16 14 25 33 42 50 66 66 62 54 56 63 68 67 69 68 61 57 54 62
Wind_Direction_850mb
149 156 152 155 171 172 165 163 149 135 131 126 150 161 170 187 200 212 225 230 233 225 218 215 228 245 253 258 259 268 275 277 284 285 284 285 285 282
120 133 154 158 164 172 177 170 161 152 151 165 167 164 177 195 208 221 225 226 224 215 212 224 238 249 261 267 270 271 272 278 284 288 288 287 285 283
128 112 124 159 162 175 173 160 152 165 156 158 172 175 178 199 205 199 205 207 210 218 226 236 246 261 272 273 273 273 276 281 287 291 291 288 287 283
166 145 127 141 150 159 161 152 153 150 161 168 170 178 182 201 194 198 200 213 229 243 247 258 266 269 271 274 276 279 284 286 288 291 291 288 287 282
155 151 149 154 163 165 149 142 149 147 165 173 172 181 185 185 188 205 205 221 267 272 260 264 267 269 273 278 280 282 283 285 288 291 288 289 288 285
163 175 161 155 159 154 144 135 145 165 170 170 167 166 180 188 202 204 211 222 222 240 252 266 272 276 276 283 283 286 289 290 290 289 288 288 288 285
113 141 148 149 158 155 142 143 160 163 166 159 158 170 186 197 208 221 239 253 246 261 278 282 292 294 299 300 303 304 302 301 299 296 292 289 285 284
131 130 143 148 155 160 157 163 164 175 168 164 178 196 209 224 225 235 234 247 260 277 274 284 300 306 307 310 313 314 312 309 307 305 305 303 297 288
130 135 143 145 152 159 170 164 168 171 175 182 192 199 220 241 253 258 261 247 256 270 281 290 291 295 306 308 308 308 309 308 307 306 301 302 302 298
128 140 150 154 163 163 157 170 172 172 183 190 186 199 208 216 237 247 259 265 271 284 293 288 305 295 302 298 291 286 295 297 297 296 293 298 304 297
149 158 160 160 158 160 164 174 180 186 193 202 217 231 245 253 259 258 265 283 291 294 299 297 307 294 294 308 312 293 290 291 299 289 288 296 300 292
172 162 171 167 165 163 158 166 161 160 177 196 244 269 284 291 297 301 302 295 299 303 300 297 299 308 314 307 303 292 295 293 291 299 304 298 297 285
175 170 162 159 157 152 162 162 167 178 202 257 297 340 353 351 340 327 315 314 320 320 318 314 314 320 323 327 329 331 330 329 323 318 311 312 312 297
163 163 160 157 158 167 166 170 188 223 255 284 302 347 345 284 287 306 316 317 316 320 323 344 336 339 331 328 330 333 331 329 325 326 324 325 320 309
177 170 172 174 175 179 193 228 248 260 268 279 6 210 257 267 279 287 289 301 318 336 346 350 342 339 334 326 328 327 324 324 323 320 313 310 317 311
179 184 180 189 200 214 234 245 259 261 269 284 258 249 266 277 284 286 297 307 321 322 350 331 336 337 337 333 330 321 319 325 324 324 322 320 319 322
187 189 200 216 233 239 251 262 237 250 213 218 235 259 268 278 321 320 317 321 340 359 344 322 314 310 309 311 317 319 325 330 324 318 316 315 315 316
203 209 217 229 242 253 225 185 191 194 194 236 294 279 320 330 324 337 4 16 1 333 333 348 327 326 328 330 335 326 328 324 319 318 320 321 311 312
208 213 220 229 221 206 191 199 203 205 233 258 227 159 318 321 50 45 9 333 342 345 349 335 339 333 333 334 329 329 321 320 320 326 326 323 321 328
213 222 218 217 190 196 206 215 212 224 212 190 235 351 64 53 51 20 15 350 351 351 340 336 337 333 331 325 320 328 335 321 330 328 329 329 334 336
233 229 224 206 206 206 209 209 220 195 186 210 142 123 114 110 63 27 16 355 353 346 347 348 342 330 321 322 327 330 330 337 342 329 326 330 335 335
244 211 204 204 207 211 213 211 176 183 155 132 129 138 122 105 69 41 19 16 5 337 330 328 335 337 341 335 331 331 337 344 347 349 339 331 333 324
220 201 204 207 210 211 180 174 164 150 149 155 161 135 117 84 67 32 22 350 336 327 319 323 337 342 343 344 341 339 333 335 337 334 328 332 328 326